Tracking 18871 objects as of 13-Dec-2017
HD Live streaming from Space Station
objects crossing your sky now

ARIANE 44LP DEB

Track ARIANE 44LP DEB now!
10-day predictions


NORAD ID: 27662
Int'l Code: 1991-015N
Perigee: 379.3 km
Apogee: 24,027.4 km
Inclination: 6.0 °
Period: 419.9 minutes
Semi major axis: 18574 km
RCS: 0.2322 m2 (medium)
Launch date: March 2, 1991
Source: France (FR)
Launch site: FRENCH GUIANA (FRGUI)

Note: This is SATELLITE DEBRIS
aabbcc
Your satellite tracking list
Your tracking list is empty




NASA's NSSDC Master Catalog

Two Line Element Set (TLE):
1 27662U 91015N   17346.16528197 +.00004251 +00000-0 +40095-2 0  9991
2 27662 005.9614 047.2327 6365807 256.2853 029.6154 03.42952082066566
Source of the keplerian elements: AFSPC